Palm Springs, CA

10:18 AM PDT on September 21, 2017 (GMT -0700)
Palm Springs International

Weather History for KPSP - March, 2014

Change the Weather History Date:

Saturday, March 15, 2014

  Actual Average Record
Temperature  
Mean Temperature 73 °F 66 °F  
Max Temperature 89 °F 79 °F 98 °F (1934)
Min Temperature 57 °F 53 °F 34 °F (1942)
Degree Days  
Heating Degree Days 0 3  
Month to date heating degree days 12 45  
Since 1 July heating degree days 423 823  
Cooling Degree Days 8 3  
Month to date cooling degree days 76 34  
Year to date cooling degree days 184 61  
Growing Degree Days 24 (Base 50)    
Moisture  
Dew Point 23 °F    
Average Humidity 28    
Maximum Humidity 51    
Minimum Humidity 5    
Precipitation  
Precipitation 0.00 in 0.01 in 0.70 in (2003)
Month to date precipitation 0.28 0.49  
Year to date precipitation 0.70 2.52  
Since 1 July precipitation 1.96  
Snow  
Snow 0.00 in - - ()
Month to date snowfall 0.0  
Year to date snowfall 0.0  
Snow Depth 0.00 in    
Sea Level Pressure  
Sea Level Pressure 30.15 in    
Wind  
Wind Speed 6 mph (West)    
Max Wind Speed 21 mph    
Max Gust Speed 28 mph    
Visibility 10 miles    
Events      
T = Trace of Precipitation, MM = Missing Value Source: NWS Daily Summary

Daily Weather History Graph

Daily Weather History Graph

Search for Another Location

Airport or City:

Trip Planner

Search our weather history database for the weather conditions in past years. The results will help you decide how hot, cold, wet, or windy it might be!

Date:

Astronomy

Mar. 15, 2014 Rise Set
Actual Time 6:56 AM PDT 6:53 PM PDT
Civil Twilight 6:31 AM PDT 7:18 PM PDT
Nautical Twilight 6:02 AM PDT 7:47 PM PDT
Astronomical Twilight 5:33 AM PDT 8:16 PM PDT
Moon 6:17 PM PDT (3/15) 6:09 AM PDT (3/15)
Length of Visible Light 12h 47m
Length of Day
11h 57m
Waxing Gibbous, 99% of the Moon is Illuminated
Mar 15
Waxing Gibbous
Mar 16
Full
Mar 23
Last Quarter
Mar 30
New
Apr 7
First Quarter

Hourly Weather History & Observations

Time (PDT) Temp. Dew Point Humidity Pressure Visibility Wind Dir Wind Speed Gust Speed Precip Events Conditions
12:53 AM 64.9 °F 39.9 °F 40% 30.04 in 10.0 mi Calm Calm - N/A   Clear
1:53 AM 64.9 °F 39.9 °F 40% 30.04 in 10.0 mi Calm Calm - N/A   Clear
2:53 AM 61.0 °F 42.1 °F 50% 30.06 in 10.0 mi West 5.8 mph - N/A   Clear
3:53 AM 62.1 °F 41.0 °F 46% 30.06 in 10.0 mi NNE 5.8 mph - N/A   Clear
4:53 AM 63.0 °F 41.0 °F 45% 30.08 in 10.0 mi West 4.6 mph - N/A   Clear
5:53 AM 62.1 °F 37.0 °F 39% 30.12 in 10.0 mi Variable 4.6 mph - N/A   Clear
6:53 AM 63.0 °F 36.0 °F 37% 30.14 in 10.0 mi Variable 4.6 mph - N/A   Clear
7:53 AM 64.9 °F 34.0 °F 32% 30.17 in 10.0 mi North 6.9 mph - N/A   Clear
8:53 AM 73.0 °F 28.9 °F 20% 30.20 in 10.0 mi East 3.5 mph - N/A   Clear
9:53 AM 79.0 °F 28.0 °F 15% 30.23 in 10.0 mi Variable 5.8 mph - N/A   Clear
10:53 AM 82.9 °F 16.0 °F 8% 30.23 in 10.0 mi NNE 15.0 mph 24.2 mph N/A   Clear
11:53 AM 84.9 °F 15.1 °F 7% 30.24 in 10.0 mi NNW 10.4 mph 20.7 mph N/A   Clear
12:53 PM 86.0 °F 12.0 °F 6% 30.21 in 10.0 mi NNE 17.3 mph 23.0 mph N/A   Clear
1:53 PM 86.0 °F 12.0 °F 6% 30.17 in 10.0 mi Variable 4.6 mph - N/A   Clear
2:53 PM 88.0 °F 12.9 °F 6% 30.15 in 10.0 mi Variable 6.9 mph - N/A   Clear
3:53 PM 88.0 °F 9.0 °F 5% 30.13 in 10.0 mi SSW 6.9 mph - N/A   Clear
4:53 PM 88.0 °F 10.0 °F 5% 30.13 in 10.0 mi SW 9.2 mph 16.1 mph N/A   Clear
5:53 PM 87.1 °F 8.1 °F 5% 30.13 in 10.0 mi SSW 5.8 mph - N/A   Clear
6:53 PM 82.9 °F 16.0 °F 8% 30.13 in 10.0 mi WSW 6.9 mph - N/A   Clear
7:53 PM 80.1 °F 16.0 °F 9% 30.15 in 10.0 mi Calm Calm - N/A   Clear
8:53 PM 75.9 °F 19.0 °F 12% 30.16 in 10.0 mi SW 3.5 mph - N/A   Clear
9:53 PM 75.0 °F 17.1 °F 11% 30.19 in 10.0 mi West 5.8 mph - N/A   Clear
10:53 PM 73.0 °F 17.1 °F 12% 30.21 in 10.0 mi WSW 5.8 mph - N/A   Clear
11:53 PM 72.0 °F 14.0 °F 11% 30.22 in 10.0 mi NW 6.9 mph - N/A   Clear